period_start,C,m1,H,J0,J1,J2,J3,J4,J5,JA,JB,JC,JD,JJ,JK,JN,#
2018-05-05 00:04:16,0.07,0.25,0.00,26.25,28.82,31.65,13.93,46.57,1028.83,2019.06,3362.47,3004.37,3444.90,600.24,596.84,2.41,0000 0000 0000 0000 000000
2018-05-05 00:09:18,0.07,0.25,0.00,26.28,28.84,31.64,13.88,46.53,1028.83,2019.03,3360.69,3003.22,3443.45,599.89,596.47,2.47,0000 0000 0000 0000 000000
2018-05-05 00:14:19,0.08,0.25,0.00,26.28,28.85,31.67,13.94,46.54,1028.83,2019.01,3358.92,3001.97,3441.86,600.29,596.83,2.52,0000 0000 0000 0000 000000
2018-05-05 00:19:20,0.08,0.26,0.00,26.32,28.87,31.68,13.90,46.42,1028.83,2019.00,3357.11,3000.69,3440.41,600.42,596.94,2.57,0000 0000 0000 0000 000000
2018-05-05 00:24:21,0.08,0.26,0.00,26.38,28.89,31.70,13.96,46.58,1028.83,2019.00,3355.32,2999.56,3438.87,600.40,596.71,2.62,0000 0000 0000 0000 000000
2018-05-05 00:29:22,0.08,0.27,0.00,26.39,28.91,31.71,13.83,46.56,1028.81,2019.00,3353.55,2998.35,3437.41,599.67,596.09,2.67,0000 0000 0000 0000 000000
2018-05-05 00:34:24,0.08,0.27,0.00,26.36,28.92,31.74,13.86,46.62,1028.66,2019.00,3351.81,2997.21,3435.90,599.92,596.25,2.72,0000 0000 0000 0000 000000
2018-05-05 00:39:25,0.09,0.27,0.00,26.43,28.95,31.75,13.84,46.59,1028.38,2018.99,3350.01,2995.87,3434.37,599.98,595.96,2.77,0000 0000 0000 0000 000000
2018-05-05 00:44:26,0.08,0.28,0.00,26.45,28.96,31.78,13.83,46.54,1028.36,2018.96,3348.25,2994.68,3432.80,600.01,596.09,2.82,0000 0000 0000 0000 000000
2018-05-05 00:49:27,0.07,0.28,0.00,26.49,28.98,31.79,13.78,46.63,1028.35,2018.96,3346.56,2993.54,3431.38,599.69,595.45,2.87,0000 0000 0000 0000 000000
2018-05-05 00:54:28,0.08,0.29,0.00,26.49,29.00,31.81,13.88,46.58,1028.34,2018.91,3344.67,2992.16,3429.55,600.01,595.89,2.92,0000 0000 0000 0000 000000
2018-05-05 00:59:29,0.07,0.29,0.00,26.57,29.02,31.83,13.86,46.59,1028.26,2018.69,3342.88,2990.79,3427.91,600.04,595.73,2.97,0000 0000 0000 0000 000000
2018-05-05 01:04:31,0.05,0.29,0.00,26.64,29.04,31.86,13.90,46.66,1028.23,2018.28,3341.08,2989.56,3426.31,599.80,595.37,3.02,0000 0000 0000 0000 000000
2018-05-05 01:09:32,0.06,0.30,0.00,26.67,29.06,31.86,13.84,46.69,1028.10,2018.08,3339.30,2988.07,3424.58,600.28,595.67,3.07,0000 0000 0000 0000 000000
2018-05-05 01:14:33,0.09,0.30,0.00,26.65,29.08,31.90,13.90,46.62,1027.90,2018.02,3337.53,2986.79,3422.98,600.09,595.29,3.12,0000 0000 0000 0000 000000
2018-05-05 01:19:35,0.08,0.31,0.00,26.68,29.10,31.92,13.87,46.62,1027.90,2018.00,3335.83,2985.58,3421.43,600.03,595.40,3.17,0000 0000 0000 0000 000000
2018-05-05 01:24:36,0.07,0.31,0.00,26.75,29.12,31.93,13.82,46.63,1027.92,2018.00,3334.30,2984.43,3419.97,600.07,595.28,3.22,0000 0000 0000 0000 000000
2018-05-05 01:29:37,0.08,0.31,0.00,26.78,29.14,31.96,13.77,46.65,1027.91,2018.00,3332.60,2983.29,3418.51,599.58,594.64,3.27,0000 0000 0000 0000 000000
2018-05-05 01:34:38,0.06,0.32,0.00,26.79,29.16,31.98,13.73,46.58,1027.86,2017.99,3330.95,2982.11,3417.08,599.60,594.64,3.32,0000 0000 0000 0000 000000
2018-05-05 01:39:40,0.07,0.32,0.00,26.79,29.18,32.01,13.77,46.57,1027.87,2017.98,3329.37,2981.07,3415.75,599.74,594.79,3.37,0000 0000 0000 0000 000000
2018-05-05 01:44:41,0.08,0.33,0.00,26.84,29.21,32.04,13.84,46.53,1027.86,2017.98,3327.69,2979.88,3414.40,600.08,594.96,3.42,0000 0000 0000 0000 000000
2018-05-05 01:49:43,0.07,0.33,0.00,26.90,29.22,32.06,13.79,46.63,1027.85,2017.95,3326.18,2978.72,3412.94,599.71,594.49,3.47,0000 0000 0000 0000 000000
2018-05-05 01:54:44,0.05,0.33,0.00,26.91,29.25,32.07,13.81,46.57,1027.85,2017.77,3324.59,2977.63,3411.57,599.83,594.54,3.52,0000 0000 0000 0000 000000
2018-05-05 01:59:46,0.05,0.34,0.00,26.91,29.27,32.10,13.82,46.63,1027.85,2017.56,3322.92,2976.48,3410.12,599.98,594.77,3.57,0000 0000 0000 0000 000000
2018-05-05 02:04:47,0.04,0.34,0.00,26.91,29.30,32.14,13.80,46.58,1027.85,2017.26,3321.37,2975.46,3408.74,599.73,594.56,3.62,0000 0000 0000 0000 000000
2018-05-05 02:09:48,0.06,0.34,0.00,26.98,29.32,32.16,13.83,46.49,1027.85,2017.10,3319.80,2974.27,3407.47,600.08,594.71,3.67,0000 0000 0000 0000 000000
2018-05-05 02:14:49,0.06,0.34,0.00,27.00,29.34,32.17,13.81,46.51,1027.85,2017.03,3318.15,2973.11,3405.95,599.81,594.36,3.72,0000 0000 0000 0000 000000
2018-05-05 02:19:50,0.08,0.35,0.00,27.01,29.36,32.21,13.81,46.60,1027.83,2017.00,3316.52,2971.89,3404.51,599.41,594.07,3.77,0000 0000 0000 0000 000000
2018-05-05 02:24:52,0.07,0.35,0.00,26.99,29.39,32.23,13.83,46.58,1027.77,2017.00,3314.97,2970.80,3403.12,599.68,594.20,3.82,0000 0000 0000 0000 000000
2018-05-05 02:29:53,0.07,0.36,0.00,27.00,29.41,32.26,13.85,46.58,1027.71,2016.99,3313.55,2969.73,3401.80,599.95,594.45,3.87,0000 0000 0000 0000 000000
2018-05-05 02:34:55,0.07,0.36,0.00,27.07,29.43,32.27,13.84,46.54,1027.78,2016.99,3312.13,2968.68,3400.54,600.01,594.43,3.92,0000 0000 0000 0000 000000
2018-05-05 02:39:56,0.07,0.36,0.00,27.07,29.46,32.30,13.80,46.53,1027.76,2016.95,3310.57,2967.57,3399.10,599.95,594.29,3.97,0000 0000 0000 0000 000000
2018-05-05 02:44:57,0.06,0.37,0.00,27.07,29.48,32.33,13.84,46.53,1027.62,2016.88,3309.13,2966.50,3397.80,599.95,594.24,4.02,0000 0000 0000 0000 000000
2018-05-05 02:49:58,0.03,0.37,0.00,27.05,29.50,32.35,13.82,46.52,1027.51,2016.58,3307.55,2965.42,3396.47,600.11,594.47,4.07,0000 0000 0000 0000 000000
2018-05-05 02:54:59,0.04,0.37,0.00,27.06,29.52,32.38,13.82,46.45,1027.40,2016.21,3305.99,2964.34,3395.15,599.78,593.93,4.12,0000 0000 0000 0000 000000
2018-05-05 03:00:00,0.07,0.37,0.00,27.06,29.55,32.39,13.78,46.54,1027.38,2016.12,3304.49,2963.27,3393.81,600.08,594.28,4.17,0000 0000 0000 0000 000000
2018-05-05 03:05:01,0.06,0.38,0.00,27.07,29.56,32.41,13.85,46.53,1027.37,2016.02,3303.02,2962.18,3392.49,599.95,594.13,4.22,0000 0000 0000 0000 000000
2018-05-05 03:10:02,0.07,0.38,0.00,27.06,29.59,32.42,13.78,46.69,1027.37,2016.01,3301.46,2961.11,3391.18,599.78,593.97,4.27,0000 0000 0000 0000 000000
2018-05-05 03:15:04,0.08,0.39,0.00,27.05,29.60,32.43,13.86,46.57,1027.36,2016.00,3299.80,2959.96,3389.86,599.84,594.09,4.32,0000 0000 0000 0000 000000
2018-05-05 03:20:05,0.08,0.39,0.00,27.08,29.62,32.47,13.83,46.56,1027.34,2016.00,3298.23,2958.80,3388.46,599.70,593.81,4.37,0000 0000 0000 0000 000000
2018-05-05 03:25:06,0.07,0.39,0.00,27.10,29.64,32.46,13.83,46.58,1027.35,2016.00,3296.65,2957.71,3387.03,600.15,594.09,4.42,0000 0000 0000 0000 000000
2018-05-05 03:30:07,0.08,0.40,0.00,27.10,29.65,32.47,13.81,46.52,1027.36,2015.99,3295.05,2956.55,3385.62,600.14,594.25,4.47,0000 0000 0000 0000 000000
2018-05-05 03:35:09,0.07,0.40,0.00,27.08,29.67,32.49,13.80,46.52,1027.35,2015.99,3293.50,2955.51,3384.32,600.39,594.43,4.52,0000 0000 0000 0000 000000
2018-05-05 03:40:10,0.07,0.41,0.00,27.08,29.69,32.51,13.81,46.60,1027.30,2015.99,3291.87,2954.40,3382.97,599.93,594.17,4.57,0000 0000 0000 0000 000000
2018-05-05 03:45:11,0.07,0.41,0.00,27.10,29.70,32.53,13.86,46.59,1027.09,2015.97,3290.44,2953.29,3381.57,600.26,594.21,4.62,0000 0000 0000 0000 000000
2018-05-05 03:50:12,0.07,0.41,0.00,27.12,29.72,32.55,13.81,46.48,1026.91,2015.90,3288.75,2952.10,3380.11,599.81,593.62,4.67,0000 0000 0000 0000 000000
2018-05-05 03:55:14,0.05,0.42,0.00,27.13,29.73,32.55,13.79,46.49,1026.89,2015.80,3287.31,2951.04,3378.74,599.70,593.48,4.72,0000 0000 0000 0000 000000
2018-05-05 04:00:15,0.06,0.42,0.00,27.12,29.75,32.57,13.83,46.51,1026.87,2015.67,3285.80,2950.07,3377.52,600.15,593.92,4.77,0000 0000 0000 0000 000000
2018-05-05 04:05:16,0.05,0.42,0.00,27.12,29.76,32.60,13.81,46.56,1026.87,2015.57,3284.42,2949.07,3376.31,599.99,593.74,4.83,0000 0000 0000 0000 000000
2018-05-05 04:10:18,0.03,0.42,0.00,27.13,29.77,32.60,13.85,46.65,1026.80,2015.20,3282.91,2948.03,3374.99,600.10,593.86,4.88,0000 0000 0000 0000 000000
2018-05-05 04:15:19,0.07,0.43,0.00,27.12,29.77,32.61,13.79,46.61,1026.84,2015.13,3281.51,2947.02,3373.77,599.30,593.18,4.93,0000 0000 0000 0000 000000
2018-05-05 04:20:21,0.05,0.43,0.00,27.11,29.79,32.61,13.80,46.72,1026.85,2015.09,3280.21,2946.03,3372.54,599.69,593.59,4.98,0000 0000 0000 0000 000000
2018-05-05 04:25:22,0.06,0.43,0.00,27.09,29.80,32.62,13.81,46.67,1026.77,2015.03,3278.75,2945.05,3371.31,599.79,593.57,5.03,0000 0000 0000 0000 000000
2018-05-05 04:30:23,0.06,0.44,0.00,27.14,29.80,32.63,13.77,46.59,1026.69,2015.06,3277.50,2944.14,3370.08,599.56,593.25,5.08,0000 0000 0000 0000 000000
2018-05-05 04:35:24,0.06,0.44,0.00,27.15,29.82,32.65,13.77,46.48,1026.77,2015.02,3276.07,2943.27,3368.88,599.63,593.45,5.13,0000 0000 0000 0000 000000
2018-05-05 04:40:25,0.07,0.44,0.00,27.15,29.82,32.66,13.82,46.63,1026.85,2015.01,3274.69,2942.25,3367.73,599.61,593.26,5.18,0000 0000 0000 0000 000000
2018-05-05 04:45:27,0.06,0.45,0.00,27.12,29.84,32.65,13.80,46.37,1026.87,2015.01,3273.45,2941.36,3366.56,600.17,594.00,5.23,0000 0000 0000 0000 000000
2018-05-05 04:50:28,0.06,0.45,0.00,27.12,29.85,32.67,13.80,46.42,1026.86,2015.00,3272.02,2940.43,3365.40,600.28,594.04,5.28,0000 0000 0000 0000 000000
2018-05-05 04:55:29,0.07,0.45,0.00,27.14,29.85,32.68,13.84,46.45,1026.87,2015.00,3270.64,2939.52,3364.18,600.27,594.13,5.33,0000 0000 0000 0000 000000
2018-05-05 05:00:31,0.06,0.46,0.00,27.16,29.87,32.68,13.75,46.49,1026.87,2015.00,3269.42,2938.56,3363.02,600.20,593.99,5.38,0000 0000 0000 0000 000000
2018-05-05 05:05:32,0.05,0.46,0.00,27.14,29.87,32.69,13.80,46.47,1026.84,2015.00,3268.15,2937.73,3361.97,599.67,593.41,5.43,0000 0000 0000 0000 000000
2018-05-05 05:10:34,0.07,0.46,0.00,27.13,29.87,32.69,13.87,46.60,1026.59,2015.00,3266.86,2936.77,3360.76,600.49,594.02,5.48,0000 0000 0000 0000 000000
2018-05-05 05:15:35,0.05,0.47,0.00,27.12,29.89,32.69,13.78,46.70,1026.42,2014.98,3265.53,2935.86,3359.55,599.86,593.29,5.53,0000 0000 0000 0000 000000
2018-05-05 05:20:36,0.06,0.47,0.00,27.15,29.90,32.69,13.82,46.45,1026.41,2014.99,3264.24,2934.89,3358.36,599.82,593.29,5.58,0000 0000 0000 0000 000000
2018-05-05 05:25:37,0.05,0.47,0.00,27.16,29.90,32.71,13.81,46.52,1026.40,2014.99,3263.00,2933.98,3357.30,599.79,593.27,5.63,0000 0000 0000 0000 000000
2018-05-05 05:30:39,0.07,0.48,0.00,27.15,29.90,32.72,13.75,46.57,1026.38,2014.99,3261.69,2933.05,3356.10,599.92,593.44,5.68,0000 0000 0000 0000 000000
2018-05-05 05:35:40,0.07,0.48,0.00,27.15,29.92,32.71,13.86,46.53,1026.38,2014.99,3260.46,2932.07,3354.83,600.53,594.06,5.73,0000 0000 0000 0000 000000
2018-05-05 05:40:41,0.06,0.48,0.00,27.15,29.92,32.72,13.82,46.52,1026.36,2014.97,3259.07,2931.14,3353.68,600.28,593.74,5.78,0000 0000 0000 0000 000000
2018-05-05 05:45:42,0.07,0.49,0.00,27.19,29.92,32.73,13.84,46.62,1026.18,2014.94,3257.66,2930.14,3352.46,599.86,593.06,5.83,0000 0000 0000 0000 000000
2018-05-05 05:50:43,0.04,0.49,0.00,27.20,29.93,32.74,13.87,46.62,1025.96,2014.73,3256.26,2929.11,3351.21,600.34,593.44,5.88,0000 0000 0000 0000 000000
2018-05-05 05:55:45,0.07,0.49,0.00,27.18,29.95,32.74,13.79,46.55,1025.91,2014.69,3254.78,2928.17,3349.91,600.10,593.27,5.93,0000 0000 0000 0000 000000
2018-05-05 06:00:46,0.05,0.49,0.00,27.17,29.95,32.74,13.82,46.53,1025.90,2014.61,3253.50,2927.25,3348.75,600.17,593.23,5.98,0000 0000 0000 0000 000000
2018-05-05 06:05:47,0.03,0.50,0.00,27.19,29.95,32.74,13.78,46.67,1025.90,2014.32,3252.03,2926.24,3347.44,600.04,593.14,6.03,0000 0000 0000 0000 000000
2018-05-05 06:10:49,0.06,0.50,0.00,27.20,29.95,32.75,13.78,46.66,1025.87,2014.20,3250.55,2925.17,3346.18,599.94,593.00,6.08,0000 0000 0000 0000 000000
2018-05-05 06:15:50,0.08,0.50,0.00,27.21,29.97,32.76,13.77,46.63,1025.86,2014.21,3248.97,2924.13,3344.88,599.75,592.92,6.13,0000 0000 0000 0000 000000
2018-05-05 06:20:51,0.07,0.51,0.00,27.19,29.97,32.77,13.77,46.69,1025.67,2014.15,3247.52,2923.13,3343.60,599.64,592.59,6.18,0000 0000 0000 0000 000000
2018-05-05 06:25:52,0.09,0.51,0.00,27.17,29.97,32.76,13.81,46.51,1025.55,2014.34,3245.94,2922.13,3342.44,600.30,593.20,6.23,0000 0000 0000 0000 000000
2018-05-05 06:30:54,0.07,0.52,0.00,27.17,29.97,32.77,13.79,46.66,1025.74,2014.39,3244.41,2921.11,3341.06,599.50,592.54,6.28,0000 0000 0000 0000 000000
2018-05-05 06:35:55,0.05,0.52,0.00,27.20,29.98,32.78,13.83,46.68,1025.50,2014.14,3242.78,2920.01,3339.67,600.27,593.05,6.33,0000 0000 0000 0000 000000
2018-05-05 06:40:56,0.07,0.52,0.00,27.20,29.99,32.79,13.81,46.75,1025.41,2014.13,3241.07,2918.85,3338.22,600.21,593.03,6.38,0000 0000 0000 0000 000000
2018-05-05 06:45:58,0.09,0.53,0.00,27.17,30.00,32.79,13.82,46.80,1025.40,2014.08,3239.43,2917.68,3336.69,600.05,592.89,6.43,0000 0000 0000 0000 000000
2018-05-05 06:50:59,0.08,0.53,0.00,27.16,30.00,32.79,13.80,46.84,1025.34,2014.10,3237.67,2916.53,3335.30,600.09,592.91,6.48,0000 0000 0000 0000 000000
2018-05-05 06:56:00,0.07,0.54,0.00,27.16,30.00,32.79,13.82,46.80,1025.31,2014.07,3235.89,2915.40,3333.75,600.02,592.88,6.53,0000 0000 0000 0000 000000
2018-05-05 07:01:01,0.07,0.54,0.00,27.18,30.00,32.80,13.88,46.88,1025.29,2014.08,3234.23,2914.21,3332.31,600.45,593.19,6.58,0000 0000 0000 0000 000000
2018-05-05 07:06:03,0.08,0.54,0.00,27.17,30.00,32.80,13.83,46.92,1025.10,2014.05,3232.52,2913.04,3330.77,599.64,592.35,6.63,0000 0000 0000 0000 000000
2018-05-05 07:11:04,0.08,0.55,0.00,27.15,30.00,32.81,13.83,46.87,1024.96,2014.06,3230.81,2911.92,3329.43,599.51,592.18,6.68,0000 0000 0000 0000 000000
2018-05-05 07:16:06,0.08,0.55,0.00,27.12,30.00,32.79,13.74,46.83,1024.96,2014.02,3229.10,2910.77,3327.90,599.52,592.17,6.73,0000 0000 0000 0000 000000
2018-05-05 07:21:07,0.09,0.56,0.00,27.12,30.01,32.80,13.85,46.69,1024.97,2014.02,3227.37,2909.58,3326.51,600.31,592.98,6.78,0000 0000 0000 0000 000000
2018-05-05 07:26:08,0.08,0.56,0.00,27.15,30.01,32.81,13.75,46.75,1025.04,2014.03,3225.56,2908.45,3325.02,599.88,592.57,6.83,0000 0000 0000 0000 000000
2018-05-05 07:31:10,0.08,0.57,0.00,27.14,30.02,32.82,13.77,46.66,1024.94,2014.01,3223.71,2907.21,3323.52,599.66,592.45,6.88,0000 0000 0000 0000 000000
2018-05-05 07:36:11,0.08,0.57,0.00,27.13,30.02,32.81,13.86,46.71,1024.92,2014.02,3221.99,2905.98,3321.96,600.19,592.95,6.93,0000 0000 0000 0000 000000
2018-05-05 07:41:12,0.10,0.57,0.00,27.10,30.02,32.81,13.86,46.71,1024.95,2014.02,3220.11,2904.72,3320.45,600.32,593.02,6.98,0000 0000 0000 0000 000000
2018-05-05 07:46:14,0.09,0.58,0.00,27.10,30.02,32.83,13.83,46.81,1025.09,2014.00,3218.19,2903.53,3318.82,600.33,593.12,7.03,0000 0000 0000 0000 000000
2018-05-05 07:51:15,0.09,0.58,0.00,27.13,30.02,32.83,13.80,46.60,1025.01,2014.01,3216.21,2902.18,3317.16,600.10,592.74,7.08,0000 0000 0000 0000 000000
2018-05-05 07:56:16,0.09,0.59,0.00,27.11,30.01,32.83,13.75,46.58,1024.95,2014.00,3214.28,2900.83,3315.55,599.62,592.22,7.13,0000 0000 0000 0000 000000
2018-05-05 08:01:17,0.10,0.59,0.00,27.08,30.01,32.82,13.73,46.63,1024.93,2014.01,3212.31,2899.52,3313.88,599.71,592.46,7.19,0000 0000 0000 0000 000000
2018-05-05 08:06:18,0.09,0.60,0.00,27.05,30.00,32.81,13.82,46.66,1024.93,2014.00,3210.30,2898.27,3312.22,600.03,592.79,7.24,0000 0000 0000 0000 000000
2018-05-05 08:11:19,0.10,0.60,0.00,27.05,30.00,32.80,13.80,46.58,1025.10,2014.00,3208.25,2896.88,3310.51,599.86,592.80,7.29,0000 0000 0000 0000 000000
2018-05-05 08:16:20,0.10,0.61,0.00,27.05,30.00,32.80,13.81,46.63,1025.10,2014.00,3206.19,2895.53,3308.73,600.28,593.19,7.34,0000 0000 0000 0000 000000
2018-05-05 08:21:22,0.09,0.61,0.00,27.03,30.00,32.81,13.74,46.61,1024.94,2014.00,3204.18,2894.16,3307.12,599.44,592.27,7.39,0000 0000 0000 0000 000000
2018-05-05 08:26:23,0.11,0.62,0.00,26.99,30.00,32.79,13.88,46.63,1024.94,2014.01,3202.05,2892.72,3305.37,600.19,593.11,7.44,0000 0000 0000 0000 000000
2018-05-05 08:31:24,0.09,0.62,0.00,26.96,30.00,32.77,13.78,46.63,1024.94,2014.00,3199.90,2891.41,3303.65,599.84,592.92,7.49,0000 0000 0000 0000 000000
2018-05-05 08:36:26,0.11,0.63,0.00,26.98,29.98,32.77,13.83,46.67,1024.93,2014.03,3197.91,2889.95,3301.86,600.16,593.13,7.54,0000 0000 0000 0000 000000
2018-05-05 08:41:27,0.10,0.63,0.00,26.97,29.97,32.73,13.77,46.56,1025.03,2014.02,3195.60,2888.53,3299.99,599.81,592.82,7.59,0000 0000 0000 0000 000000
2018-05-05 08:46:28,0.11,0.64,0.00,26.95,29.97,32.76,13.95,46.58,1025.22,2014.06,3193.37,2887.02,3298.19,600.70,593.87,7.64,0000 0000 0000 0000 000000
2018-05-05 08:51:30,0.12,0.65,0.00,26.91,29.97,32.73,13.81,46.59,1025.15,2014.08,3191.05,2885.45,3296.23,600.36,593.50,7.69,0000 0000 0000 0000 000000
2018-05-05 08:56:31,0.11,0.65,0.00,26.92,29.95,32.75,13.88,46.51,1025.19,2014.04,3188.62,2883.85,3294.22,600.21,593.40,7.74,0000 0000 0000 0000 000000
2018-05-05 09:01:32,0.12,0.66,0.00,26.92,29.95,32.73,13.82,46.59,1025.10,2014.09,3186.21,2882.36,3292.29,600.38,593.53,7.79,0000 0000 0000 0000 000000
2018-05-05 09:06:33,0.12,0.66,0.00,26.89,29.95,32.72,13.77,46.58,1025.23,2014.13,3183.80,2880.69,3290.28,599.79,593.00,7.84,0000 0000 0000 0000 000000
2018-05-05 09:11:35,0.12,0.67,0.00,26.86,29.94,32.70,13.78,46.66,1025.33,2014.22,3181.30,2879.18,3288.28,599.98,593.60,7.89,0000 0000 0000 0000 000000
2018-05-05 09:16:36,0.14,0.68,0.00,26.87,29.92,32.70,13.82,46.66,1025.35,2014.28,3178.70,2877.62,3286.15,599.89,593.31,7.94,0000 0000 0000 0000 000000
2018-05-05 09:21:38,0.13,0.68,0.00,26.87,29.92,32.68,13.81,46.65,1025.28,2014.36,3176.18,2875.98,3284.06,600.09,593.45,7.99,0000 0000 0000 0000 000000
2018-05-05 09:26:39,0.11,0.69,0.00,26.84,29.91,32.68,13.87,46.83,1024.99,2014.40,3173.50,2874.22,3281.88,599.82,593.15,8.04,0000 0000 0000 0000 000000
2018-05-05 09:31:40,0.13,0.70,0.00,26.81,29.90,32.68,13.81,46.79,1025.08,2014.42,3170.66,2872.45,3279.60,599.68,593.11,8.09,0000 0000 0000 0000 000000
2018-05-05 09:36:41,0.13,0.70,0.00,26.81,29.90,32.66,13.81,46.92,1025.01,2014.45,3168.23,2870.77,3277.49,600.19,593.48,8.14,0000 0000 0000 0000 000000
2018-05-05 09:41:43,0.15,0.71,0.00,26.83,29.88,32.64,13.79,46.86,1024.93,2014.78,3165.65,2869.19,3275.50,599.87,593.03,8.19,0000 0000 0000 0000 000000
2018-05-05 09:46:44,0.12,0.72,0.00,26.78,29.87,32.66,13.79,46.82,1024.92,2014.96,3163.29,2867.68,3273.59,600.04,593.32,8.24,0000 0000 0000 0000 000000
2018-05-05 09:51:46,0.11,0.72,0.00,26.76,29.86,32.63,13.85,46.91,1024.92,2014.97,3160.96,2866.21,3271.72,600.16,593.53,8.29,0000 0000 0000 0000 000000
2018-05-05 09:56:47,0.12,0.73,0.00,26.76,29.85,32.63,13.85,46.79,1024.92,2014.98,3158.61,2864.67,3269.77,599.98,593.32,8.34,0000 0000 0000 0000 000000
2018-05-05 10:01:48,0.10,0.74,0.00,26.79,29.85,32.60,13.85,46.84,1024.91,2014.98,3156.30,2863.27,3267.84,600.11,593.42,8.39,0000 0000 0000 0000 000000
2018-05-05 10:06:49,0.12,0.74,0.00,26.75,29.82,32.57,13.86,46.93,1024.82,2014.98,3153.99,2861.72,3265.94,600.04,593.50,8.44,0000 0000 0000 0000 000000
2018-05-05 10:11:50,0.11,0.75,0.00,26.69,29.82,32.58,13.87,46.80,1024.86,2014.98,3151.52,2860.16,3263.92,600.07,593.63,8.49,0000 0000 0000 0000 000000
2018-05-05 10:16:52,0.11,0.75,0.00,26.68,29.80,32.57,13.76,46.88,1024.88,2014.99,3149.22,2858.67,3262.23,599.87,593.50,8.54,0000 0000 0000 0000 000000
2018-05-05 10:21:53,0.11,0.76,0.00,26.69,29.80,32.55,13.81,46.84,1024.91,2014.99,3146.79,2857.20,3260.28,599.92,593.42,8.59,0000 0000 0000 0000 000000
2018-05-05 10:26:53,0.11,0.76,0.00,26.66,29.77,32.54,13.89,46.83,1024.92,2015.00,3144.48,2855.71,3258.33,599.98,593.63,8.64,0000 0000 0000 0000 000000
2018-05-05 10:31:55,0.12,0.77,0.00,26.62,29.77,32.52,13.85,46.69,1024.92,2015.00,3141.99,2854.10,3256.32,600.20,593.90,8.69,0000 0000 0000 0000 000000
2018-05-05 10:36:56,0.10,0.78,0.00,26.60,29.76,32.51,13.80,46.77,1024.92,2015.01,3139.81,2852.70,3254.49,599.87,593.62,8.74,0000 0000 0000 0000 000000
2018-05-05 10:41:57,0.10,0.78,0.00,26.61,29.75,32.51,13.84,46.79,1024.91,2015.02,3137.60,2851.34,3252.71,600.22,593.89,8.79,0000 0000 0000 0000 000000
2018-05-05 10:46:59,0.12,0.79,0.00,26.58,29.73,32.51,13.83,46.83,1024.88,2015.04,3135.39,2849.85,3250.84,599.98,593.74,8.84,0000 0000 0000 0000 000000
2018-05-05 10:52:00,0.11,0.79,0.00,26.54,29.72,32.47,13.84,46.78,1024.91,2015.12,3133.20,2848.46,3248.94,600.03,593.88,8.89,0000 0000 0000 0000 000000
2018-05-05 10:57:02,0.11,0.80,0.00,26.54,29.70,32.48,13.83,46.75,1024.91,2015.37,3131.04,2847.04,3247.16,600.22,594.03,8.94,0000 0000 0000 0000 000000
2018-05-05 11:02:03,0.13,0.81,0.00,26.53,29.70,32.42,13.81,46.73,1024.92,2015.58,3128.95,2845.70,3245.43,600.22,594.00,8.99,0000 0000 0000 0000 000000
2018-05-05 11:07:04,0.12,0.81,0.00,26.49,29.67,32.43,13.82,46.75,1024.92,2015.82,3126.77,2844.38,3243.63,599.89,593.87,9.04,0000 0000 0000 0000 000000
2018-05-05 11:12:05,0.10,0.82,0.00,26.46,29.66,32.41,13.83,46.74,1024.92,2015.78,3124.66,2842.99,3241.81,600.08,593.95,9.09,0000 0000 0000 0000 000000
2018-05-05 11:17:07,0.11,0.82,0.00,26.47,29.65,32.39,13.91,46.81,1024.92,2015.94,3122.66,2841.70,3240.29,600.26,594.21,9.14,0000 0000 0000 0000 000000
2018-05-05 11:22:08,0.09,0.83,0.00,26.45,29.62,32.37,13.87,46.77,1024.92,2015.97,3120.65,2840.51,3238.59,600.09,594.14,9.19,0000 0000 0000 0000 000000
2018-05-05 11:27:09,0.09,0.83,0.00,26.41,29.61,32.35,13.76,46.65,1024.92,2015.97,3118.65,2839.24,3236.92,599.50,593.62,9.24,0000 0000 0000 0000 000000
2018-05-05 11:32:11,0.09,0.84,0.00,26.40,29.60,32.34,13.83,46.83,1024.92,2015.99,3116.78,2838.03,3235.34,599.80,593.94,9.29,0000 0000 0000 0000 000000
2018-05-05 11:37:12,0.10,0.84,0.00,26.40,29.58,32.34,13.85,46.76,1024.91,2015.99,3114.82,2836.81,3233.73,600.03,594.12,9.34,0000 0000 0000 0000 000000
2018-05-05 11:42:13,0.09,0.85,0.00,26.36,29.56,32.32,13.87,46.81,1024.78,2015.99,3112.89,2835.66,3232.10,600.22,594.40,9.39,0000 0000 0000 0000 000000
2018-05-05 11:47:15,0.09,0.85,0.00,26.33,29.55,32.30,13.79,46.86,1024.52,2015.99,3111.06,2834.47,3230.58,599.94,593.93,9.44,0000 0000 0000 0000 000000
2018-05-05 11:52:17,0.09,0.86,0.00,26.35,29.52,32.29,13.89,46.74,1024.52,2015.99,3109.07,2833.24,3228.91,599.96,593.86,9.50,0000 0000 0000 0000 000000
2018-05-05 11:57:18,0.09,0.86,0.00,26.32,29.51,32.26,13.82,46.86,1024.55,2015.99,3107.17,2832.01,3227.38,599.77,593.79,9.55,0000 0000 0000 0000 000000
2018-05-05 12:02:19,0.10,0.87,0.00,26.29,29.50,32.24,13.87,46.89,1024.67,2016.00,3105.22,2830.81,3225.74,599.70,594.02,9.60,0000 0000 0000 0000 000000
2018-05-05 12:07:21,0.09,0.87,0.00,26.29,29.47,32.24,13.86,46.83,1024.49,2016.03,3103.31,2829.65,3224.17,599.95,593.99,9.65,0000 0000 0000 0000 000000
2018-05-05 12:12:22,0.09,0.88,0.00,26.29,29.46,32.22,13.86,46.86,1024.44,2016.05,3101.41,2828.50,3222.59,600.18,594.25,9.70,0000 0000 0000 0000 000000
2018-05-05 12:17:23,0.10,0.88,0.00,26.24,29.45,32.19,13.89,46.83,1024.44,2016.16,3099.53,2827.35,3221.10,600.13,594.25,9.75,0000 0000 0000 0000 000000
2018-05-05 12:22:25,0.10,0.89,0.00,26.22,29.42,32.17,13.85,46.60,1024.44,2016.30,3097.68,2826.22,3219.50,600.02,594.16,9.80,0000 0000 0000 0000 000000
2018-05-05 12:27:26,0.11,0.89,0.00,26.23,29.41,32.17,13.86,46.79,1024.43,2016.68,3095.99,2825.12,3218.07,599.97,594.11,9.85,0000 0000 0000 0000 000000
2018-05-05 12:32:28,0.12,0.90,0.00,26.18,29.40,32.15,13.91,46.88,1024.42,2016.90,3094.05,2823.96,3216.55,600.43,594.68,9.90,0000 0000 0000 0000 000000
2018-05-05 12:37:29,0.09,0.90,0.00,26.15,29.37,32.12,13.85,46.70,1024.34,2016.95,3092.27,2822.81,3214.96,600.06,594.30,9.95,0000 0000 0000 0000 000000
2018-05-05 12:42:31,0.09,0.91,0.00,26.17,29.35,32.10,13.92,46.77,1024.27,2016.97,3090.33,2821.63,3213.40,600.36,594.57,10.00,0000 0000 0000 0000 000000
2018-05-05 12:47:32,0.10,0.91,0.00,26.14,29.34,32.07,13.88,46.76,1024.19,2016.98,3088.35,2820.43,3211.73,599.94,594.11,10.05,0000 0000 0000 0000 000000
2018-05-05 12:52:34,0.09,0.92,0.00,26.11,29.32,32.06,13.85,46.77,1024.06,2016.98,3086.31,2819.14,3210.07,599.90,594.02,10.10,0000 0000 0000 0000 000000
2018-05-05 12:57:35,0.08,0.92,0.00,26.10,29.30,32.06,13.80,46.75,1023.98,2016.99,3084.38,2817.95,3208.49,599.90,594.02,10.15,0000 0000 0000 0000 000000
2018-05-05 13:02:37,0.09,0.93,0.00,26.10,29.29,32.04,13.87,46.67,1023.95,2016.99,3082.52,2816.84,3206.94,600.05,594.16,10.20,0000 0000 0000 0000 000000